CSZ4316 EGKK-EDDF

Flight info

Callsign CSZ4316
Flight time 0h 59m
Altitude 35000
Route DVR UL9 KONAN UL607 KOK DCT REMBA UL607 SPI T180 NIVNU/N0417F230 T847 IMCOM IMCOM2C
Aircraft A319/M-SDE3FGHIRWY/LB1

Departure

Time 2026-05-07 20:16
Airport London Gatwick Airport (EGKK)

Arrival

Time 2026-05-07 21:16
Airport Frankfurt Main Airport (EDDF)
Time Latitude Longitude Altitude Speed Heading
2026-05-07 19:15 51.16064 -0.18023 213 ft 0 kts 77°
2026-05-07 19:51 51.16060 -0.18052 208 ft 4 kts 81°
2026-05-07 19:51 51.16057 -0.18095 213 ft 4 kts 91°
2026-05-07 19:51 51.16061 -0.18136 214 ft 4 kts 117°
2026-05-07 19:51 51.16074 -0.18159 209 ft 1 kts 167°
2026-05-07 19:52 51.16075 -0.18159 209 ft 0 kts 167°
2026-05-07 19:55 51.16074 -0.18159 204 ft 1 kts 167°
2026-05-07 19:55 51.16041 -0.18169 209 ft 8 kts 221°
2026-05-07 19:55 51.16009 -0.18259 206 ft 11 kts 209°
2026-05-07 19:55 51.15928 -0.18238 204 ft 14 kts 167°
2026-05-07 19:56 51.15829 -0.18205 211 ft 11 kts 167°
2026-05-07 19:56 51.15748 -0.18177 209 ft 13 kts 168°
2026-05-07 19:56 51.15671 -0.18184 208 ft 10 kts 227°
2026-05-07 19:56 51.15652 -0.18302 204 ft 12 kts 257°
2026-05-07 19:57 51.15630 -0.18463 211 ft 17 kts 257°
2026-05-07 19:57 51.15603 -0.18660 208 ft 19 kts 257°
2026-05-07 19:57 51.15571 -0.18816 207 ft 14 kts 223°
2026-05-07 19:57 51.15471 -0.18800 209 ft 16 kts 167°
2026-05-07 19:58 51.15353 -0.18759 204 ft 19 kts 167°
2026-05-07 19:58 51.15224 -0.18713 204 ft 16 kts 168°
2026-05-07 19:58 51.15138 -0.18710 208 ft 13 kts 221°
2026-05-07 19:58 51.15113 -0.18858 214 ft 15 kts 257°
2026-05-07 19:59 51.15089 -0.19034 204 ft 17 kts 258°
2026-05-07 19:59 51.15061 -0.19233 204 ft 19 kts 257°
2026-05-07 19:59 51.15031 -0.19455 204 ft 21 kts 258°
2026-05-07 19:59 51.15002 -0.19660 209 ft 19 kts 258°
2026-05-07 20:00 51.14972 -0.19880 210 ft 21 kts 258°
2026-05-07 20:00 51.14939 -0.20118 210 ft 18 kts 258°
2026-05-07 20:00 51.14916 -0.20286 203 ft 16 kts 257°
2026-05-07 20:00 51.14890 -0.20469 205 ft 16 kts 257°
2026-05-07 20:01 51.14867 -0.20635 212 ft 17 kts 258°
2026-05-07 20:01 51.14842 -0.20827 204 ft 19 kts 257°
2026-05-07 20:01 51.14818 -0.20996 204 ft 13 kts 258°
2026-05-07 20:01 51.14799 -0.21132 204 ft 11 kts 254°
2026-05-07 20:02 51.14777 -0.21228 206 ft 6 kts 257°
2026-05-07 20:02 51.14767 -0.21305 211 ft 8 kts 258°
2026-05-07 20:02 51.14764 -0.21321 204 ft 0 kts 257°
2026-05-07 20:07 51.14763 -0.21334 204 ft 3 kts 257°
2026-05-07 20:08 51.14748 -0.21390 213 ft 7 kts 233°
2026-05-07 20:08 51.14729 -0.21405 204 ft 0 kts 188°
2026-05-07 20:11 51.14725 -0.21405 213 ft 4 kts 185°
2026-05-07 20:11 51.14670 -0.21375 205 ft 10 kts 136°
2026-05-07 20:11 51.14625 -0.21330 204 ft 0 kts 165°
2026-05-07 20:15 51.14606 -0.21323 204 ft 9 kts 167°
2026-05-07 20:15 51.14528 -0.21246 210 ft 17 kts 121°
2026-05-07 20:15 51.14530 -0.21091 207 ft 5 kts 77°
2026-05-07 20:15 51.14531 -0.21086 208 ft 2 kts 78°
2026-05-07 20:16 51.14576 -0.20760 205 ft 62 kts 77°
2026-05-07 20:16 51.14716 -0.19763 209 ft 121 kts 78°
2026-05-07 20:16 51.14943 -0.18226 388 ft 155 kts 74°
2026-05-07 20:16 51.15201 -0.16523 1038 ft 158 kts 79°
2026-05-07 20:17 51.15415 -0.14835 1788 ft 157 kts 80°
2026-05-07 20:17 51.15635 -0.13083 2306 ft 170 kts 80°
2026-05-07 20:17 51.15880 -0.11154 2668 ft 192 kts 79°
2026-05-07 20:17 51.16161 -0.08962 3242 ft 206 kts 79°
2026-05-07 20:18 51.16451 -0.06713 4140 ft 209 kts 79°
2026-05-07 20:18 51.16761 -0.04328 4738 ft 232 kts 79°
2026-05-07 20:18 51.17104 -0.01686 5306 ft 255 kts 78°
2026-05-07 20:18 51.17476 0.01155 5791 ft 267 kts 79°
2026-05-07 20:19 51.17859 0.04061 5902 ft 269 kts 78°
2026-05-07 20:19 51.18238 0.06979 5905 ft 269 kts 80°
2026-05-07 20:19 51.18261 0.09945 5893 ft 268 kts 96°
2026-05-07 20:19 51.18085 0.12861 5873 ft 268 kts 96°
2026-05-07 20:20 51.17907 0.15780 5872 ft 268 kts 96°
2026-05-07 20:20 51.17727 0.18718 5841 ft 268 kts 96°
2026-05-07 20:20 51.17546 0.21677 5830 ft 268 kts 96°
2026-05-07 20:20 51.17367 0.24634 5808 ft 268 kts 96°
2026-05-07 20:21 51.17189 0.27590 5786 ft 268 kts 96°
2026-05-07 20:21 51.17009 0.30547 5788 ft 268 kts 96°
2026-05-07 20:21 51.16888 0.33514 5794 ft 268 kts 90°
2026-05-07 20:21 51.16892 0.36484 5789 ft 268 kts 90°
2026-05-07 20:22 51.16887 0.39453 5801 ft 268 kts 90°
2026-05-07 20:22 51.16878 0.42430 5827 ft 266 kts 90°
2026-05-07 20:22 51.16866 0.45342 6334 ft 269 kts 91°
2026-05-07 20:22 51.16855 0.48347 6838 ft 273 kts 91°
2026-05-07 20:23 51.16843 0.51388 7341 ft 276 kts 91°
2026-05-07 20:23 51.16830 0.54466 7852 ft 280 kts 91°
2026-05-07 20:23 51.16819 0.57587 8376 ft 284 kts 91°
2026-05-07 20:23 51.16806 0.60752 8924 ft 287 kts 91°
2026-05-07 20:24 51.16793 0.63956 9482 ft 291 kts 91°
2026-05-07 20:24 51.16779 0.67206 10015 ft 296 kts 91°
2026-05-07 20:24 51.16761 0.70579 10532 ft 312 kts 91°
2026-05-07 20:24 51.16742 0.74123 11056 ft 328 kts 91°
2026-05-07 20:25 51.16721 0.77841 11590 ft 342 kts 91°
2026-05-07 20:25 51.16699 0.81698 12131 ft 355 kts 91°
2026-05-07 20:25 51.16674 0.85679 12677 ft 365 kts 92°
2026-05-07 20:25 51.16649 0.89696 13226 ft 370 kts 92°
2026-05-07 20:26 51.16626 0.93803 13822 ft 373 kts 92°
2026-05-07 20:26 51.16601 0.97955 14309 ft 376 kts 92°
2026-05-07 20:26 51.16573 1.02132 14793 ft 379 kts 92°
2026-05-07 20:26 51.16542 1.06353 15289 ft 382 kts 92°
2026-05-07 20:27 51.16508 1.10605 15792 ft 386 kts 92°
2026-05-07 20:27 51.16469 1.14897 16304 ft 389 kts 92°
2026-05-07 20:27 51.16430 1.19223 16824 ft 392 kts 92°
2026-05-07 20:27 51.16389 1.23598 17355 ft 396 kts 92°
2026-05-07 20:28 51.16344 1.28003 17896 ft 400 kts 92°
2026-05-07 20:28 51.16295 1.32450 18434 ft 403 kts 92°
2026-05-07 20:28 51.16235 1.36875 18909 ft 406 kts 93°
2026-05-07 20:28 51.16099 1.41386 19389 ft 409 kts 95°
2026-05-07 20:29 51.15891 1.45917 19877 ft 412 kts 96°
2026-05-07 20:29 51.15645 1.50478 20378 ft 415 kts 96°
2026-05-07 20:29 51.15388 1.55074 20890 ft 418 kts 96°
2026-05-07 20:29 51.15133 1.59701 21409 ft 421 kts 96°
2026-05-07 20:30 51.14885 1.64366 21934 ft 424 kts 96°
2026-05-07 20:30 51.14645 1.69058 22483 ft 427 kts 96°
2026-05-07 20:30 51.14410 1.73778 23024 ft 429 kts 95°
2026-05-07 20:30 51.14176 1.78526 23582 ft 431 kts 95°
2026-05-07 20:31 51.13945 1.83229 24056 ft 433 kts 96°
2026-05-07 20:31 51.13705 1.88010 24529 ft 434 kts 96°
2026-05-07 20:31 51.13458 1.92810 25011 ft 435 kts 96°
2026-05-07 20:31 51.13205 1.97609 25503 ft 436 kts 96°
2026-05-07 20:32 51.12949 2.02438 26004 ft 438 kts 96°
2026-05-07 20:32 51.12692 2.07266 26514 ft 439 kts 96°
2026-05-07 20:32 51.12436 2.12115 27036 ft 440 kts 96°
2026-05-07 20:32 51.12179 2.16969 27564 ft 440 kts 96°
2026-05-07 20:33 51.11921 2.21825 28105 ft 441 kts 96°
2026-05-07 20:33 51.11660 2.26692 28659 ft 442 kts 96°
2026-05-07 20:33 51.11397 2.31561 29219 ft 442 kts 96°
2026-05-07 20:33 51.11132 2.36335 29780 ft 442 kts 96°
2026-05-07 20:34 51.10854 2.41210 30321 ft 442 kts 96°
2026-05-07 20:34 51.10573 2.46087 30822 ft 442 kts 96°
2026-05-07 20:34 51.10293 2.50950 31324 ft 442 kts 96°
2026-05-07 20:34 51.10012 2.55815 31839 ft 441 kts 96°
2026-05-07 20:35 51.09733 2.60678 32364 ft 441 kts 96°
2026-05-07 20:35 51.09337 2.65496 32899 ft 439 kts 103°
2026-05-07 20:35 51.08582 2.70187 33446 ft 437 kts 108°
2026-05-07 20:35 51.07753 2.74765 33994 ft 436 kts 108°
2026-05-07 20:36 51.06915 2.79379 34482 ft 434 kts 108°
2026-05-07 20:36 51.06080 2.83977 34929 ft 433 kts 108°
2026-05-07 20:36 51.05236 2.88609 35071 ft 440 kts 108°
2026-05-07 20:37 51.03490 2.98138 35104 ft 459 kts 108°
2026-05-07 20:37 51.01672 3.08027 35099 ft 469 kts 108°
2026-05-07 20:38 50.99843 3.17960 35093 ft 469 kts 108°
2026-05-07 20:38 50.98019 3.27813 35084 ft 469 kts 108°
2026-05-07 20:39 50.96175 3.37697 35083 ft 469 kts 108°
2026-05-07 20:39 50.94314 3.47606 35080 ft 468 kts 108°
2026-05-07 20:40 50.92446 3.57494 35073 ft 468 kts 108°
2026-05-07 20:40 50.90574 3.67370 35071 ft 468 kts 108°
2026-05-07 20:41 50.88714 3.77163 35072 ft 468 kts 108°
2026-05-07 20:41 50.86825 3.87019 35067 ft 468 kts 108°
2026-05-07 20:42 50.84923 3.96867 35070 ft 468 kts 108°
2026-05-07 20:42 50.83016 4.06706 35078 ft 468 kts 108°
2026-05-07 20:43 50.81121 4.16479 35082 ft 468 kts 108°
2026-05-07 20:43 50.79206 4.26295 35077 ft 467 kts 109°
2026-05-07 20:44 50.77280 4.36104 35088 ft 467 kts 109°
2026-05-07 20:44 50.75339 4.45898 35090 ft 467 kts 109°
2026-05-07 20:45 50.73409 4.55606 35089 ft 467 kts 109°
2026-05-07 20:45 50.71466 4.65369 35086 ft 467 kts 109°
2026-05-07 20:46 50.69508 4.75145 35069 ft 467 kts 109°
2026-05-07 20:46 50.67539 4.84901 35069 ft 467 kts 109°
2026-05-07 20:47 50.65560 4.94650 35071 ft 467 kts 109°
2026-05-07 20:47 50.63582 5.04322 35071 ft 467 kts 109°
2026-05-07 20:48 50.61576 5.14057 35063 ft 467 kts 109°
2026-05-07 20:48 50.59561 5.23784 35067 ft 467 kts 109°
2026-05-07 20:49 50.57537 5.33512 35070 ft 468 kts 109°
2026-05-07 20:49 50.55531 5.43104 34716 ft 461 kts 109°
2026-05-07 20:49 50.54527 5.47876 34266 ft 460 kts 109°
2026-05-07 20:50 50.53524 5.52635 33737 ft 458 kts 109°
2026-05-07 20:50 50.52523 5.57370 33185 ft 455 kts 109°
2026-05-07 20:50 50.51528 5.62073 32647 ft 453 kts 109°
2026-05-07 20:50 50.50570 5.66780 32099 ft 450 kts 108°
2026-05-07 20:51 50.49676 5.71484 31584 ft 448 kts 107°
2026-05-07 20:51 50.48836 5.76104 31079 ft 445 kts 107°
2026-05-07 20:51 50.48001 5.80752 30580 ft 441 kts 107°
2026-05-07 20:51 50.47161 5.85378 30079 ft 438 kts 107°
2026-05-07 20:52 50.46315 5.89958 29495 ft 435 kts 107°
2026-05-07 20:52 50.45466 5.94502 28931 ft 432 kts 107°
2026-05-07 20:52 50.44614 5.99004 28377 ft 429 kts 108°
2026-05-07 20:52 50.43762 6.03475 27830 ft 426 kts 108°
2026-05-07 20:53 50.42915 6.07910 27296 ft 423 kts 108°
2026-05-07 20:53 50.42074 6.12308 26776 ft 420 kts 108°
2026-05-07 20:53 50.41250 6.16614 26271 ft 417 kts 108°
2026-05-07 20:53 50.40421 6.20939 25837 ft 412 kts 108°
2026-05-07 20:54 50.39599 6.25220 25411 ft 408 kts 108°
2026-05-07 20:54 50.38781 6.29461 24994 ft 405 kts 108°
2026-05-07 20:54 50.37969 6.33668 24586 ft 402 kts 108°
2026-05-07 20:54 50.37162 6.37851 24176 ft 399 kts 108°
2026-05-07 20:55 50.36475 6.42042 23774 ft 397 kts 101°
2026-05-07 20:55 50.36130 6.46315 23322 ft 394 kts 95°
2026-05-07 20:55 50.35888 6.50522 22861 ft 391 kts 96°
2026-05-07 20:55 50.35629 6.54738 22398 ft 388 kts 96°
2026-05-07 20:56 50.35362 6.58918 21941 ft 384 kts 96°
2026-05-07 20:56 50.35093 6.63066 21491 ft 380 kts 96°
2026-05-07 20:56 50.34826 6.67163 21049 ft 377 kts 96°
2026-05-07 20:56 50.34564 6.71216 20617 ft 373 kts 96°
2026-05-07 20:57 50.34302 6.75242 20182 ft 369 kts 96°
2026-05-07 20:57 50.34047 6.79218 19758 ft 366 kts 96°
2026-05-07 20:57 50.33745 6.83147 19336 ft 362 kts 101°
2026-05-07 20:57 50.33175 6.86914 18934 ft 359 kts 108°
2026-05-07 20:58 50.32316 6.90552 18532 ft 355 kts 115°
2026-05-07 20:58 50.31279 6.94037 18092 ft 352 kts 116°
2026-05-07 20:58 50.30250 6.97490 17627 ft 349 kts 116°
2026-05-07 20:58 50.29231 7.00918 17172 ft 346 kts 116°
2026-05-07 20:59 50.28559 7.03174 16876 ft 345 kts 116°
2026-05-07 20:59 50.27212 7.07697 16285 ft 341 kts 116°
2026-05-07 20:59 50.26214 7.11052 15850 ft 339 kts 116°
2026-05-07 20:59 50.25236 7.14334 15427 ft 337 kts 116°
2026-05-07 21:00 50.24255 7.17616 15084 ft 332 kts 116°
2026-05-07 21:00 50.23285 7.20847 14839 ft 325 kts 116°
2026-05-07 21:00 50.22333 7.24001 14593 ft 318 kts 116°
2026-05-07 21:00 50.21710 7.26058 14424 ft 315 kts 117°
2026-05-07 21:01 50.20777 7.29142 14020 ft 314 kts 117°
2026-05-07 21:01 50.19856 7.32189 13552 ft 307 kts 117°
2026-05-07 21:01 50.19008 7.35216 13075 ft 302 kts 113°
2026-05-07 21:01 50.18261 7.38245 12595 ft 297 kts 111°
2026-05-07 21:02 50.17347 7.42218 11982 ft 291 kts 110°
2026-05-07 21:02 50.16890 7.44220 11670 ft 289 kts 110°
2026-05-07 21:02 50.16221 7.47146 11224 ft 286 kts 110°
2026-05-07 21:02 50.15548 7.50043 10788 ft 290 kts 110°
2026-05-07 21:03 50.14818 7.52987 10351 ft 293 kts 117°
2026-05-07 21:03 50.13591 7.55508 9911 ft 294 kts 139°
2026-05-07 21:03 50.11988 7.57504 9425 ft 296 kts 143°
2026-05-07 21:03 50.10384 7.59453 9040 ft 287 kts 143°
2026-05-07 21:04 50.08837 7.61329 8725 ft 276 kts 143°
2026-05-07 21:04 50.07346 7.63137 8409 ft 268 kts 143°
2026-05-07 21:04 50.05892 7.64898 8100 ft 263 kts 143°
2026-05-07 21:04 50.03992 7.67194 7696 ft 261 kts 143°
2026-05-07 21:05 50.03042 7.68340 7508 ft 260 kts 143°
2026-05-07 21:05 50.01611 7.70066 7206 ft 260 kts 143°
2026-05-07 21:05 50.00179 7.71791 6909 ft 260 kts 143°
2026-05-07 21:05 49.98746 7.73517 6617 ft 260 kts 143°
2026-05-07 21:06 49.97316 7.75238 6303 ft 260 kts 142°
2026-05-07 21:06 49.95886 7.76956 5990 ft 260 kts 142°
2026-05-07 21:06 49.94455 7.78674 5678 ft 259 kts 142°
2026-05-07 21:06 49.93031 7.80383 5367 ft 259 kts 142°
2026-05-07 21:07 49.91610 7.82090 5083 ft 257 kts 141°
2026-05-07 21:07 49.90401 7.84035 5005 ft 245 kts 123°
2026-05-07 21:07 49.89658 7.86316 5017 ft 237 kts 107°
2026-05-07 21:07 49.89368 7.88813 5020 ft 235 kts 90°
2026-05-07 21:08 49.89549 7.91315 5017 ft 234 kts 73°
2026-05-07 21:08 49.90102 7.93685 5011 ft 234 kts 68°
2026-05-07 21:08 49.90678 7.96043 5019 ft 234 kts 68°
2026-05-07 21:08 49.91252 7.98399 5018 ft 234 kts 68°
2026-05-07 21:09 49.91830 8.00756 5018 ft 234 kts 68°
2026-05-07 21:09 49.92408 8.03111 5015 ft 234 kts 68°
2026-05-07 21:09 49.92987 8.05479 5015 ft 234 kts 68°
2026-05-07 21:09 49.93558 8.07810 5017 ft 234 kts 68°
2026-05-07 21:10 49.94130 8.10154 5019 ft 226 kts 68°
2026-05-07 21:10 49.94672 8.12374 5014 ft 217 kts 68°
2026-05-07 21:10 49.95205 8.14557 5017 ft 215 kts 68°
2026-05-07 21:10 49.95735 8.16731 4981 ft 215 kts 68°
2026-05-07 21:11 49.96257 8.18878 4762 ft 213 kts 68°
2026-05-07 21:11 49.96772 8.20994 4459 ft 206 kts 68°
2026-05-07 21:11 49.97763 8.25078 3895 ft 201 kts 68°
2026-05-07 21:12 49.98254 8.27102 3595 ft 198 kts 68°
2026-05-07 21:12 49.98724 8.29042 3328 ft 191 kts 68°
2026-05-07 21:12 49.99180 8.30924 3055 ft 182 kts 69°
2026-05-07 21:12 49.99609 8.32701 2800 ft 169 kts 69°
2026-05-07 21:13 49.99998 8.34310 2565 ft 150 kts 69°
2026-05-07 21:13 50.00348 8.35759 2358 ft 137 kts 69°
2026-05-07 21:13 50.00671 8.37096 2168 ft 129 kts 69°
2026-05-07 21:13 50.00981 8.38381 1984 ft 126 kts 69°
2026-05-07 21:14 50.01286 8.39645 1802 ft 124 kts 69°
2026-05-07 21:14 50.01585 8.40884 1626 ft 124 kts 69°
2026-05-07 21:14 50.01886 8.42138 1441 ft 124 kts 69°
2026-05-07 21:14 50.02190 8.43401 1262 ft 125 kts 69°
2026-05-07 21:15 50.02495 8.44665 1094 ft 125 kts 69°
2026-05-07 21:15 50.02800 8.45935 907 ft 125 kts 68°
2026-05-07 21:15 50.03105 8.47203 728 ft 125 kts 68°
2026-05-07 21:15 50.03410 8.48474 548 ft 125 kts 68°
2026-05-07 21:16 50.03711 8.49730 369 ft 124 kts 68°
2026-05-07 21:16 50.03993 8.50884 326 ft 89 kts 69°
2026-05-07 21:16 50.04107 8.51379 331 ft 23 kts 77°
2026-05-07 21:16 50.04112 8.51614 333 ft 15 kts 96°
2026-05-07 21:17 50.04099 8.51748 336 ft 11 kts 99°
2026-05-07 21:17 50.04088 8.51854 337 ft 10 kts 99°
2026-05-07 21:17 50.04076 8.51953 338 ft 10 kts 100°
2026-05-07 21:17 50.04065 8.52064 338 ft 11 kts 95°
2026-05-07 21:18 50.04084 8.52188 346 ft 13 kts 69°
2026-05-07 21:18 50.04116 8.52323 351 ft 14 kts 70°
2026-05-07 21:18 50.04151 8.52470 348 ft 15 kts 69°
2026-05-07 21:18 50.04190 8.52633 354 ft 17 kts 70°
2026-05-07 21:19 50.04233 8.52814 355 ft 19 kts 70°
2026-05-07 21:19 50.04278 8.52997 354 ft 18 kts 70°
2026-05-07 21:19 50.04323 8.53186 360 ft 18 kts 69°
2026-05-07 21:19 50.04363 8.53353 371 ft 15 kts 69°
2026-05-07 21:20 50.04394 8.53497 375 ft 14 kts 80°
2026-05-07 21:20 50.04404 8.53654 375 ft 16 kts 84°
2026-05-07 21:20 50.04417 8.53845 375 ft 19 kts 83°
2026-05-07 21:20 50.04431 8.54051 375 ft 19 kts 84°
2026-05-07 21:21 50.04444 8.54249 375 ft 17 kts 84°
2026-05-07 21:21 50.04453 8.54464 370 ft 22 kts 94°
2026-05-07 21:21 50.04408 8.54649 364 ft 20 kts 124°
2026-05-07 21:21 50.04278 8.54793 360 ft 25 kts 159°
2026-05-07 21:22 50.04122 8.54879 357 ft 21 kts 160°
2026-05-07 21:22 50.04067 8.54911 358 ft 7 kts 159°
2026-05-07 21:22 50.04027 8.54936 354 ft 0 kts 157°
2026-05-07 21:22 50.04024 8.54939 352 ft 4 kts 147°
2026-05-07 21:23 50.04016 8.55001 355 ft 7 kts 83°
2026-05-07 21:23 50.04042 8.55114 356 ft 14 kts 70°
2026-05-07 21:23 50.04081 8.55278 353 ft 19 kts 69°
2026-05-07 21:23 50.04136 8.55509 352 ft 26 kts 70°
2026-05-07 21:24 50.04187 8.55722 357 ft 18 kts 69°
2026-05-07 21:24 50.04239 8.55938 355 ft 23 kts 70°
2026-05-07 21:24 50.04298 8.56181 361 ft 27 kts 69°
2026-05-07 21:24 50.04354 8.56419 356 ft 21 kts 69°
2026-05-07 21:25 50.04409 8.56650 358 ft 23 kts 70°
2026-05-07 21:25 50.04454 8.56838 359 ft 16 kts 70°
2026-05-07 21:25 50.04492 8.57000 360 ft 17 kts 70°
2026-05-07 21:25 50.04507 8.57063 360 ft 6 kts 70°
2026-05-07 21:26 50.04527 8.57145 357 ft 8 kts 69°
2026-05-07 21:26 50.04564 8.57194 357 ft 2 kts
2026-05-07 21:26 50.04573 8.57195 357 ft 1 kts
2026-05-07 21:26 50.04586 8.57195 357 ft 3 kts
2026-05-07 21:27 50.04601 8.57197 359 ft 2 kts
2026-05-07 21:27 50.04609 8.57197 360 ft 1 kts
2026-05-07 21:27 50.04613 8.57198 361 ft 0 kts